SBIRS GEO-3 (USA 282)

Last updated on Wed Oct 29 2025 00:02:49 GMT+0000 (Coordinated Universal Time)

1 43162U 18009A 25301.57544852 .00000138 00000+0 00000+0 0 9995 2 43162 2.0864 0.0862 0001904 215.5611 229.3144 1.00272752 28527
UTC large
Height (km)
Speed (km/s)
/
Latitude / Longitude
Inclination (degrees)
Orbital Period (minutes)
Azimuth
Elevation
Range (km)
Doppler Factor

Next 0 passes for location: London (51.5072 / 0.1276)

Sorry there are no passes over London.